Regional Weather Roundup
Issued by NWS Sioux Falls, SD

Home | Current Version | Previous Version | Text Only | Print | Product List | Glossary Off
Versions: 1 2 3 4 5 6 7 8 9 10 11 12 13 14 15 16 17 18 19 20 21 22 23 24 25 26 27 28 29 30 31 32 33 34 35 36 37 38 39 40 41 42 43 44 45 46 47 48 49 50

425
ASUS43 KFSD 261902
RWRFSD

WEATHER ROUNDUP FOR SE SOUTH DAKOTA/SW MINNESOTA/NW IOWA
NATIONAL WEATHER SERVICE SIOUX FALLS SD
100 PM CST SUN FEB 26 2017

NOTE: "FAIR" INDICATES FEW OR NO CLOUDS BELOW 12,000 FEET WITH NO
SIGNIFICANT WEATHER AND OR OBSTRUCTIONS TO VISIBILITY.


SDZ038>040-050-052>070-262000-
SOUTHEAST SOUTH DAKOTA

CITY           SKY/WX    TMP DP  RH WIND       PRES   REMARKS
BROOKINGS      MOSUNNY   35  20  54 W13       29.82S WCI  26
CHAMBERLAIN    SUNNY     43  19  38 SW9G17    29.83F
HURON          SUNNY     35  21  56 VRB5      29.84F
MADISON        FAIR      36  21  55 W12G20    29.83S
MITCHELL       MOSUNNY   39  25  57 S8        29.86F
SIOUX FALLS    MOSUNNY   33  25  72 W8        29.87S WCI  26
WINNER         FAIR      38  20  48 W13       29.84F
YANKTON        SUNNY     32  19  59 NW6       29.90S WCI  26
$$

MNZ071-072-080-081-089-090-097-098-262000-
SOUTHWEST MINNESOTA

CITY           SKY/WX    TMP DP  RH WIND       PRES   REMARKS
FAIRMONT       SUNNY     35  25  66 W12       29.86S WCI  27
JACKSON        SUNNY     32  27  80 SW10      29.85S WCI  24
LUVERNE        SUNNY     34  25  69 W7        29.87S WCI  28
MARSHALL       SUNNY     31  22  69 N12       29.85S WCI  22
MONTEVIDEO     SUNNY     30  18  59 N8        29.88R WCI  23
PIPESTONE      SUNNY     37  19  48 W10       29.82S
REDWOOD FALLS  SUNNY     34  16  47 NW13G20   29.85R WCI  25
TRACY          SUNNY     36  27  68 NW9G16    29.84S
WINDOM         SUNNY     37  25  60 W8        29.83F
WORTHINGTON    SUNNY     33  26  75 W13       29.86R WCI  24
$$

IAZ001>003-012>014-020>022-031-032-NEZ013-014-SDZ071-262000-
NORTHWEST IOWA

CITY           SKY/WX    TMP DP  RH WIND       PRES   REMARKS
CHEROKEE       SUNNY     30  22  72 W7        29.91S WCI  23
DENISON        SUNNY     32  19  59 SW9       29.91S WCI  24
ESTHERVILLE    SUNNY     31  25  78 W12       29.86R WCI  22
LE MARS        SUNNY     32  23  69 W8        29.92F WCI  25
SHELDON        SUNNY     32  30  93 SW10      29.87S WCI  24
SIOUX CITY     SUNNY     34  22  61 W6        29.93S WCI  29
SPENCER        SUNNY     32  25  75 W13       29.88S WCI  22
STORM LAKE     SUNNY     28  21  74 W14       29.89S WCI  17
$$

ABBREVIATIONS USED IN REMARKS
   TC - TEMPERATURE IN CELSIUS
  WCI - WIND CHILL INDEX
   HX - HEAT INDEX
  VSB - VISIBILITY





USA.gov is the U.S. government's official web portal to all federal, state and local government web resources and services.